TimeCDT,TemperatureF,Dew PointF,Humidity,Sea Level PressureIn,VisibilityMPH,Wind Direction,Wind SpeedMPH,Gust SpeedMPH,PrecipitationIn,Events,Conditions,WindDirDegrees,DateUTC
12:56 AM,73.0,70.0,90,29.84,10.0,West,3.5,-,0.00,,Overcast,280,2013-07-25 05:56:00
1:56 AM,72.0,70.0,93,29.82,10.0,WNW,4.6,-,N/A,,Clear,290,2013-07-25 06:56:00
2:56 AM,72.0,69.1,91,29.83,10.0,Calm,Calm,-,N/A,,Clear,0,2013-07-25 07:56:00
3:56 AM,73.0,69.1,87,29.86,10.0,NW,3.5,-,0.00,,Mostly Cloudy,310,2013-07-25 08:56:00
4:56 AM,73.0,69.1,87,29.86,10.0,Calm,Calm,-,N/A,,Overcast,0,2013-07-25 09:56:00
5:47 AM,73.4,69.8,88,29.91,1.8,NW,13.8,19.6,0.19,Rain,Heavy Rain,320,2013-07-25 10:47:00
5:50 AM,73.4,69.8,88,29.91,1.2,NW,10.4,19.6,0.26,Rain,Heavy Rain,320,2013-07-25 10:50:00
5:56 AM,75.0,71.1,87,29.87,1.5,NNW,6.9,19.6,0.27,Rain,Heavy Rain,330,2013-07-25 10:56:00
6:00 AM,73.4,71.6,94,29.91,3.0,NW,6.9,-,0.01,Rain,Rain,320,2013-07-25 11:00:00
6:24 AM,73.4,71.6,94,29.92,10.0,NW,3.5,-,0.01,,Overcast,310,2013-07-25 11:24:00
6:56 AM,73.9,71.1,91,29.89,5.0,WNW,8.1,-,0.01,Rain,Light Rain,290,2013-07-25 11:56:00
7:06 AM,73.4,71.6,94,29.93,2.0,WNW,5.8,-,0.02,Rain,Light Rain,290,2013-07-25 12:06:00
7:16 AM,73.4,71.6,94,29.94,5.0,WNW,5.8,-,0.02,Rain,Light Rain,290,2013-07-25 12:16:00
7:56 AM,73.9,72.0,93,29.91,6.0,Variable,3.5,-,0.02,Rain,Light Rain,0,2013-07-25 12:56:00
8:11 AM,73.4,73.4,100,29.95,7.0,Calm,Calm,-,0.00,,Overcast,0,2013-07-25 13:11:00
8:56 AM,77.0,73.9,90,29.91,10.0,NNW,3.5,-,0.00,,Mostly Cloudy,340,2013-07-25 13:56:00
9:56 AM,81.0,73.0,77,29.92,10.0,North,4.6,-,N/A,,Mostly Cloudy,350,2013-07-25 14:56:00
10:56 AM,84.9,73.0,67,29.93,10.0,NNW,4.6,-,N/A,,Mostly Cloudy,330,2013-07-25 15:56:00
11:56 AM,86.0,73.9,67,29.94,10.0,WNW,5.8,-,N/A,,Mostly Cloudy,300,2013-07-25 16:56:00
12:56 PM,88.0,72.0,59,29.94,10.0,NW,5.8,-,N/A,,Mostly Cloudy,320,2013-07-25 17:56:00
1:56 PM,89.1,73.9,61,29.93,10.0,NW,6.9,-,N/A,,Mostly Cloudy,310,2013-07-25 18:56:00
2:56 PM,89.1,73.0,59,29.91,10.0,NW,9.2,-,N/A,,Mostly Cloudy,310,2013-07-25 19:56:00
3:56 PM,90.0,72.0,55,29.91,10.0,NW,8.1,-,N/A,,Mostly Cloudy,320,2013-07-25 20:56:00
4:56 PM,90.0,71.1,54,29.91,10.0,NW,8.1,-,N/A,,Mostly Cloudy,310,2013-07-25 21:56:00
5:56 PM,89.1,71.1,55,29.91,10.0,NW,9.2,-,N/A,,Scattered Clouds,310,2013-07-25 22:56:00
6:56 PM,87.1,72.0,61,29.92,10.0,NW,6.9,-,N/A,,Scattered Clouds,320,2013-07-25 23:56:00
7:56 PM,81.0,73.0,77,29.93,10.0,WNW,4.6,-,N/A,,Scattered Clouds,300,2013-07-26 00:56:00
8:56 PM,79.0,73.0,82,29.94,10.0,Calm,Calm,-,N/A,,Scattered Clouds,0,2013-07-26 01:56:00
9:56 PM,78.1,73.0,84,29.94,10.0,Calm,Calm,-,N/A,,Partly Cloudy,0,2013-07-26 02:56:00
10:56 PM,75.9,71.1,85,29.96,7.0,NW,3.5,-,N/A,,Partly Cloudy,310,2013-07-26 03:56:00
11:56 PM,75.9,72.0,87,29.97,8.0,Calm,Calm,-,N/A,,Scattered Clouds,0,2013-07-26 04:56:00